[[{"header":{"parameterUnit":"m.s-1","parameterCategory":1,"la1":30.2991,"la2":30.254,"lo1":-89.0895,"lo2":-89.0444,"dy":0.0017,"dx":0.0017,"nx":28,"ny":28,"refTime":"2024-02-26T09:00:00:Z","depth":0,"parameterNumber":2,"parameterNumberName":"U-component_of_WINDS"},"data":[0,0,0,0,0,0,0,0,0,0,0,0,0,0,0,0,0,0,0,0,0,0,0,0,0,0,0,0,0,0,0,0,0,0,0,0,0,0,0,0,0,0,0,0,0,0,0,0,0,0,0,0,0,0,0,0,0,0,-0.3083,-0.3083,0,-0.3039,-0.3039,-0.3038,-0.303,-0.3031,-0.3031,-0.3032,-0.2987,-0.2985,-0.2984,0,0,0,0,0,0,0,0,0,0,0,0,0,-0.3161,-0.316,-0.3083,-0.3083,-0.3082,-0.3039,-0.3039,-0.3038,-0.303,-0.3031,-0.3031,-0.3032,-0.2987,-0.2986,-0.2984,0,0,0,0,0,0,0,0,0,0,0,0,0,-0.3123,-0.316,-0.3083,-0.3073,-0.3072,-0.3039,-0.3039,-0.3038,-0.303,-0.3031,-0.3031,-0.3032,-0.2988,-0.2986,-0.2984,-0.2958,0,0,-0.2977,-0.2976,0,0,0,0,0,0,0,0,-0.3126,-0.3121,-0.3075,-0.3074,-0.3072,-0.3041,-0.305,-0.3011,-0.303,-0.3046,-0.3032,-0.3032,-0.3004,-0.3001,-0.2991,-0.2956,-0.2954,-0.2976,-0.2975,-0.2974,-0.2973,0,0,0,0,0,0,0,-0.3128,-0.3122,-0.3066,-0.3074,-0.3073,-0.3071,-0.3066,-0.3043,-0.3023,-0.3045,-0.3044,-0.3039,-0.3004,-0.2994,-0.299,-0.2954,-0.2976,-0.2974,-0.2973,-0.2972,-0.2897,-0.2896,0,0,0,0,0,0,-0.3133,-0.3125,-0.3067,-0.3064,-0.3101,-0.3069,-0.3064,-0.305,-0.3023,-0.3019,-0.3039,-0.3039,-0.2997,-0.2993,-0.2989,-0.2958,-0.2974,-0.2972,-0.2971,-0.2897,-0.2897,-0.2896,0,0,0,0,0,0,-0.3134,-0.3128,-0.3069,-0.3094,-0.3087,-0.3067,-0.3052,-0.3049,-0.3039,-0.3018,-0.3015,-0.3032,-0.2998,-0.2992,-0.2966,-0.2956,-0.2971,-0.2969,-0.2898,-0.2897,-0.2896,-0.2896,0,0,0,0,0,0,-0.3137,-0.3128,-0.3118,-0.3094,-0.3085,-0.3047,-0.3052,-0.3048,-0.3035,-0.3035,-0.3011,-0.3008,-0.2998,-0.297,-0.2964,-0.2953,-0.2967,-0.2899,-0.2898,-0.2897,-0.2897,-0.2895,-0.2894,0,0,0,0,0,-0.3139,-0.312,-0.3118,-0.3111,-0.3072,-0.3046,-0.3041,-0.303,-0.3034,-0.3024,-0.3011,-0.3008,-0.2958,-0.2967,-0.2961,-0.2949,-0.29,-0.2898,-0.2897,-0.2897,-0.2895,-0.2894,0,0,0,0,0,0,-0.3143,-0.3116,-0.3114,-0.3086,-0.3068,-0.3045,-0.3032,-0.3028,-0.3009,-0.301,-0.2997,-0.2992,-0.2967,-0.2955,-0.2966,-0.2924,-0.2929,-0.2927,-0.2932,-0.293,-0.2929,-0.2932,-0.2965,0,0,0,0,0,-0.314,-0.3121,-0.3099,-0.3076,-0.3068,-0.3051,-0.3039,-0.3032,-0.3014,-0.3007,-0.2991,-0.2974,-0.2954,-0.2942,-0.2922,-0.2895,-0.289,-0.2884,-0.2883,-0.2882,-0.2879,-0.2865,-0.2862,-0.2891,-0.2891,-0.2891,0,0,-0.3135,-0.3118,-0.3106,-0.3076,-0.3062,-0.3043,-0.3045,-0.3024,-0.301,-0.3003,-0.2978,-0.2967,-0.2946,-0.292,-0.2908,-0.291,-0.287,-0.288,-0.2879,-0.2877,-0.2863,-0.2861,-0.2858,-0.289,-0.2891,-0.2891,0,0,-0.3115,-0.31,-0.308,-0.3066,-0.3044,-0.3033,-0.3029,-0.3006,-0.2998,-0.2973,-0.2968,-0.2951,-0.2917,-0.2903,-0.2891,-0.2867,-0.2864,-0.2861,-0.2853,-0.284,-0.2837,-0.2835,-0.2827,-0.2824,-0.2859,-0.2859,-0.2859,0,-0.3111,-0.3081,-0.307,-0.3049,-0.3037,-0.303,-0.301,-0.2997,-0.297,-0.2962,-0.2964,-0.2923,-0.2908,-0.2879,-0.2873,-0.2864,-0.2859,-0.2864,-0.2838,-0.2836,-0.2834,-0.2826,-0.2823,-0.2859,-0.2859,-0.2859,-0.2859,0,-0.3077,-0.3057,-0.3043,-0.3018,-0.3004,-0.2984,-0.297,-0.2957,-0.2951,-0.2941,-0.2915,-0.2898,-0.2876,-0.2868,-0.2863,-0.2838,-0.284,-0.2841,-0.2846,-0.2831,-0.2824,-0.2821,-0.2859,-0.2859,-0.2859,-0.2859,0,0,-0.3058,-0.3027,-0.3022,-0.3011,-0.2987,-0.2971,-0.2951,-0.2929,-0.2919,-0.2901,-0.2884,-0.2856,-0.2857,-0.2844,-0.2837,-0.2825,-0.2807,-0.2827,-0.2826,-0.2824,-0.278,-0.278,-0.2777,-0.2805,-0.2805,-0.2804,-0.2782,0,-0.3035,-0.2999,-0.2989,-0.2958,-0.294,-0.2934,-0.2916,-0.29,-0.289,-0.2873,-0.2862,-0.2842,-0.2845,-0.2837,-0.2824,-0.2812,-0.2798,-0.2814,-0.279,-0.2789,-0.2795,-0.2773,-0.2772,-0.2752,-0.2779,-0.2779,-0.2778,0,-0.3004,-0.2986,-0.2953,-0.2933,-0.2925,-0.2909,-0.2889,-0.2872,-0.2854,-0.2848,-0.2834,-0.2828,-0.2807,-0.2814,-0.2786,-0.2796,-0.2786,-0.2779,-0.2778,-0.2775,-0.2783,-0.277,-0.2745,-0.2742,-0.2773,-0.2774,-0.2774,0,-0.2993,-0.2961,-0.2937,-0.2928,-0.2903,-0.2892,-0.2882,-0.2864,-0.2852,-0.2834,-0.2826,-0.2806,-0.2796,-0.2781,-0.277,-0.2776,-0.2743,-0.2749,-0.2737,-0.2738,-0.273,-0.2731,-0.2704,-0.2724,-0.2724,-0.2724,-0.2724,0,-0.2969,-0.295,-0.2932,-0.2918,-0.2896,-0.2885,-0.2864,-0.2853,-0.2838,-0.2821,-0.2815,-0.28,-0.2787,-0.277,-0.2762,-0.274,-0.2735,-0.273,-0.2728,-0.273,-0.2731,-0.2723,-0.2725,-0.2723,-0.2723,-0.2724,-0.2724,0,-0.2953,-0.2941,-0.2915,-0.2894,-0.2888,-0.2873,-0.2855,-0.2842,-0.2832,-0.2811,-0.2806,-0.279,-0.277,-0.2758,-0.2733,-0.2727,-0.2704,-0.2702,-0.271,-0.2709,-0.2698,-0.27,-0.2666,-0.2661,-0.2684,-0.2684,-0.2683,0,-0.2939,-0.2924,-0.2901,-0.289,-0.2879,-0.2861,-0.2849,-0.2837,-0.2825,-0.2804,-0.2793,-0.2772,-0.2756,-0.2725,-0.2711,-0.2692,-0.269,-0.268,-0.2687,-0.2691,-0.269,-0.2691,-0.269,-0.2678,-0.2678,-0.2678,-0.2678,0,-0.2915,-0.2909,-0.2892,-0.2872,-0.2858,-0.2841,-0.2826,-0.2817,-0.2803,-0.2789,-0.2769,-0.2756,-0.2731,-0.2711,-0.2691,-0.2681,-0.2677,-0.2676,-0.2672,-0.2675,-0.268,-0.2677,-0.2706,-0.2676,-0.2677,-0.2677,-0.2677,-0.2677,-0.2899,-0.2886,-0.2868,-0.2849,-0.2836,-0.2821,-0.2807,-0.2796,-0.2779,-0.2757,-0.2752,-0.2731,-0.2714,-0.2687,-0.2676,-0.2659,-0.2661,-0.2656,-0.2654,-0.2653,-0.2653,-0.2682,-0.2656,-0.2656,-0.2656,-0.2656,-0.2656,0,-0.2875,-0.2863,-0.2846,-0.2824,-0.2809,-0.2807,-0.279,-0.2777,-0.2759,-0.2743,-0.2727,-0.2705,-0.2686,-0.2671,-0.2652,-0.2642,-0.264,-0.2637,-0.2638,-0.2635,-0.2653,-0.2658,-0.2639,-0.2639,-0.2639,-0.2639,-0.2639,-0.2639,-0.2861,-0.2838,-0.2831,-0.2802,-0.2791,-0.277,-0.276,-0.2747,-0.2735,-0.271,-0.2694,-0.2685,-0.267,-0.2649,-0.2632,-0.2628,-0.2622,-0.262,-0.2616,-0.2632,-0.2634,-0.2636,-0.2641,-0.2618,-0.2618,-0.2599,-0.2599,-0.2599]},{"header":{"parameterUnit":"m.s-1","parameterCategory":1,"la1":30.2991,"la2":30.254,"lo1":-89.0895,"lo2":-89.0444,"dy":0.0017,"dx":0.0017,"nx":28,"ny":28,"refTime":"2024-02-26T09:00:00:Z","depth":0,"parameterNumber":3,"parameterNumberName":"V-component_of_WINDS"},"data":[0,0,0,0,0,0,0,0,0,0,0,0,0,0,0,0,0,0,0,0,0,0,0,0,0,0,0,0,0,0,0,0,0,0,0,0,0,0,0,0,0,0,0,0,0,0,0,0,0,0,0,0,0,0,0,0,0,0,1.7902,1.7902,0,1.7924,1.7924,1.7925,1.787,1.7868,1.7867,1.7865,1.789,1.7892,1.7894,0,0,0,0,0,0,0,0,0,0,0,0,0,1.7813,1.7815,1.7902,1.7902,1.7902,1.7924,1.7924,1.7925,1.787,1.7868,1.7866,1.7864,1.7889,1.7892,1.7894,0,0,0,0,0,0,0,0,0,0,0,0,0,1.7845,1.7816,1.7901,1.7878,1.7876,1.7924,1.7924,1.7925,1.7871,1.7868,1.7866,1.7863,1.7888,1.7891,1.7895,1.7967,0,0,1.7905,1.7907,0,0,0,0,0,0,0,0,1.7843,1.7849,1.7881,1.7879,1.7877,1.7892,1.7902,1.7939,1.7872,1.7873,1.7865,1.7862,1.7893,1.7895,1.7905,1.7969,1.797,1.7905,1.7907,1.7909,1.791,0,0,0,0,0,0,0,1.7841,1.7847,1.791,1.7881,1.7879,1.7866,1.7868,1.7909,1.7897,1.7873,1.7869,1.7872,1.7891,1.7902,1.7905,1.797,1.7905,1.7908,1.791,1.7912,1.8094,1.8097,0,0,0,0,0,0,1.7842,1.7846,1.791,1.7911,1.7854,1.787,1.7872,1.789,1.7896,1.7895,1.7874,1.7869,1.7898,1.7902,1.7906,1.7991,1.7909,1.7912,1.7914,1.8091,1.8094,1.8098,0,0,0,0,0,0,1.784,1.7848,1.7909,1.7877,1.7884,1.7874,1.7895,1.7892,1.7902,1.7898,1.7895,1.7888,1.7896,1.7901,1.7952,1.7992,1.7914,1.7917,1.8088,1.8092,1.8096,1.8163,0,0,0,0,0,0,1.7838,1.7848,1.7875,1.7878,1.7886,1.7955,1.7897,1.7894,1.7908,1.7902,1.791,1.7908,1.7894,1.7948,1.7956,1.7995,1.7919,1.8084,1.809,1.8095,1.8157,1.8169,1.8179,0,0,0,0,0,1.7835,1.7893,1.7877,1.7885,1.792,1.7957,1.7961,1.7943,1.7912,1.7939,1.7936,1.7908,1.7986,1.7953,1.7962,1.8003,1.8082,1.8088,1.8094,1.8152,1.8167,1.8179,0,0,0,0,0,0,1.7895,1.7893,1.7875,1.7936,1.7947,1.7948,1.7982,1.7959,1.798,1.7973,1.7951,1.7953,1.8008,1.801,1.7974,1.8073,1.8029,1.8037,1.807,1.8083,1.8094,1.8092,1.7922,0,0,0,0,0,1.7916,1.7946,1.7942,1.7997,1.8003,1.7992,1.8007,1.7992,1.8003,1.8008,1.8008,1.802,1.8047,1.8065,1.809,1.8157,1.8158,1.819,1.8201,1.821,1.8217,1.8253,1.8267,1.8118,1.8118,1.8118,0,0,1.7958,1.7961,1.7981,1.8009,1.8016,1.8048,1.7996,1.8032,1.8055,1.8013,1.8061,1.8062,1.8074,1.8133,1.816,1.8137,1.8258,1.8218,1.8225,1.8227,1.8261,1.8275,1.8287,1.8123,1.8122,1.8121,0,0,1.8052,1.8057,1.8102,1.811,1.8121,1.8113,1.8124,1.8128,1.8127,1.8175,1.8144,1.8172,1.8219,1.8228,1.8239,1.8337,1.8312,1.8346,1.8403,1.8438,1.8449,1.846,1.8494,1.8507,1.8353,1.8353,1.8354,0,1.8103,1.815,1.8129,1.8167,1.818,1.8143,1.8189,1.8198,1.8217,1.8227,1.8201,1.826,1.8265,1.8326,1.835,1.836,1.8372,1.8345,1.8449,1.8459,1.8469,1.8501,1.8515,1.8357,1.8357,1.8357,1.8356,0,1.8212,1.8245,1.8281,1.8299,1.8316,1.8359,1.8345,1.8365,1.8349,1.8344,1.8393,1.8398,1.8423,1.8436,1.8421,1.8496,1.8481,1.8453,1.8407,1.8487,1.8518,1.853,1.8363,1.8362,1.8361,1.836,0,0,1.8344,1.8351,1.8364,1.8372,1.8381,1.8406,1.8447,1.8471,1.8489,1.8503,1.8536,1.8577,1.8551,1.8564,1.8549,1.858,1.8657,1.8548,1.8548,1.8568,1.8739,1.876,1.8775,1.8641,1.8643,1.8645,1.8738,0,1.8437,1.8506,1.8488,1.8557,1.8587,1.8553,1.8588,1.8598,1.8594,1.8619,1.8615,1.8645,1.8608,1.8615,1.8644,1.8641,1.8691,1.8635,1.8672,1.8673,1.867,1.8791,1.8813,1.8901,1.875,1.8752,1.8753,0,1.8553,1.8572,1.8643,1.8648,1.866,1.8692,1.8712,1.8737,1.8747,1.8742,1.8757,1.8736,1.8776,1.8731,1.8786,1.8748,1.8762,1.8763,1.8766,1.8769,1.8718,1.8797,1.8929,1.8942,1.8772,1.877,1.8769,0,1.8642,1.8685,1.8733,1.8741,1.8747,1.8771,1.8774,1.8782,1.8798,1.8816,1.8826,1.8849,1.8862,1.888,1.8866,1.8834,1.8924,1.8877,1.8921,1.8922,1.8941,1.894,1.9077,1.8951,1.8951,1.8951,1.8951,0,1.8747,1.8792,1.8773,1.8803,1.8853,1.8833,1.8882,1.8882,1.889,1.8919,1.8891,1.8919,1.8899,1.8926,1.8916,1.8963,1.8969,1.8966,1.8963,1.8969,1.8969,1.8977,1.8971,1.8954,1.8953,1.8953,1.8952,0,1.8854,1.8844,1.8894,1.8896,1.8897,1.8934,1.8936,1.8963,1.8958,1.8995,1.9003,1.8994,1.9024,1.9012,1.9044,1.9037,1.9098,1.9086,1.9094,1.9091,1.9136,1.9132,1.9283,1.9302,1.9164,1.9165,1.9166,0,1.8922,1.8956,1.8961,1.8979,1.8984,1.9013,1.9028,1.901,1.9028,1.9042,1.9069,1.9096,1.9117,1.9166,1.9163,1.9187,1.9176,1.9227,1.918,1.9184,1.9177,1.9175,1.9178,1.9237,1.9239,1.924,1.9241,0,1.9043,1.9036,1.9059,1.9081,1.91,1.9117,1.913,1.9146,1.9129,1.915,1.918,1.9196,1.9229,1.9256,1.9278,1.9282,1.9259,1.9256,1.9267,1.9274,1.9276,1.9275,1.912,1.9253,1.9251,1.9251,1.925,1.925,1.9132,1.916,1.9169,1.9196,1.9204,1.9218,1.9244,1.9242,1.9266,1.9291,1.9279,1.9314,1.9323,1.935,1.9357,1.9384,1.9364,1.9381,1.9385,1.939,1.9395,1.9272,1.9388,1.9388,1.9388,1.9387,1.9387,0,1.9251,1.9255,1.928,1.93,1.9322,1.9298,1.9312,1.9331,1.9362,1.9373,1.9394,1.9429,1.9455,1.9454,1.9479,1.9501,1.9491,1.9508,1.9506,1.9507,1.9412,1.9399,1.9515,1.9515,1.9515,1.9515,1.9515,1.9515,1.9315,1.9362,1.9356,1.9407,1.9411,1.9444,1.9455,1.9467,1.9476,1.9515,1.9537,1.9536,1.9542,1.9567,1.959,1.9589,1.96,1.9621,1.9616,1.9527,1.9514,1.9502,1.949,1.9623,1.9623,1.9709,1.9709,1.971]}]]